Terug naar catalogus

STARLINK-36614

ActiefCommunicatieVLEO
NORAD 67622·PAYLOAD·🇺🇸 United States

Gelanceerd Jan 30, 2026 vanaf Cape Canaveral Space Force Station

Loading…

Volgende Passages (komende 24 uur)

TLE

VersSource: CelesTrak SupGP

Epoch: Sep 15, 2026, 03:39 UTC

1 67622C 26020F   26258.15256944  .00059500  00000+0  21552-2 0  2585
2 67622  42.9995 149.8790 0001536 275.8150 260.5737 15.27546385    11

Volg STARLINK-36614 in realtime met AllMySat

Download on the App Store